Regional Weather Roundup
Issued by NWS

Home | Current Version | Previous Version | Graphics & Text | Print | Product List | Glossary On
Versions: 1 2 3 4 5 6 7 8 9 10 11 12 13 14 15 16 17 18 19 20 21 22 23 24 25 26 27 28 29 30 31 32 33 34 35 36 37 38 39 40 41 42 43 44 45 46 47 48 49 50
000
ASUS43 KTOP 300308
RWRKS

WEATHER ROUNDUP FOR KANSAS
NATIONAL WEATHER SERVICE GOODLAND KS
1000 PM CDT SAT AUG 29 2015

NOTE:  "FAIR" INDICATES FEW OR NO CLOUDS BELOW 12,000 FEET WITH NO
SIGNIFICANT WEATHER AND/OR OBSTRUCTIONS TO VISIBILITY.

KSZ001>006-013>018-027>032-041>047-300400-
NORTHWEST KANSAS

CITY           SKY/WX    TMP DP  RH WIND       PRES   REMARKS
GOODLAND       CLEAR     67  49  52 S10       30.13R
HAYS           CLEAR     70  55  60 E9        30.07R
HILL CITY      CLEAR     68  54  60 E6        30.07R
RUSSELL        CLEAR     66  62  87 SE9       30.05R
$$

KSZ061>065-074>080-084>089-300400-
SOUTHWEST KANSAS

CITY           SKY/WX    TMP DP  RH WIND       PRES   REMARKS
DODGE CITY     CLEAR     68  51  54 E5        30.09R
ELKHART          N/A     67  54  63 SE8         N/A
GARDEN CITY    CLEAR     69  57  65 SE7       30.10R
GREAT BEND     CLEAR     68  59  73 E6        30.07R
LIBERAL        CLEAR     73  52  46 SE6       30.11S
PRATT          CLEAR     66  61  82 E5        30.08R
$$

KSZ066>073-081>083-090>101-300400-
SOUTHEAST KANSAS

CITY           SKY/WX    TMP DP  RH WIND       PRES   REMARKS
CHANUTE        PTCLDY    70  66  87 N7        30.02R
COFFEYVILLE    CLEAR     70  67  90 N6        30.00R
HUTCHINSON     CLEAR     65  60  84 NE5       30.06R
MEDICINE LODGE   N/A     67  62  84 E7        30.05R
NEWTON         CLEAR     66  55  68 NE3       30.08R
PARSONS        CLEAR     69  67  93 N6        30.02R
WICHITA INTL   PTCLDY    68  61  78 NE7       30.04R
WICHITA JABRA  CLEAR     63  60  90 N5        30.05R
WICHITA MCCONL CLEAR     65  59  82 NE6       30.05R
$$

KSZ007>012-019>026-033>040-048>060-102>105-300400-
NORTHEAST KANSAS

CITY           SKY/WX    TMP DP  RH WIND       PRES   REMARKS
CONCORDIA      CLEAR     62  61  96 SE6       30.07R
EMPORIA        CLEAR     66  63  90 CALM      30.04R
LAWRENCE       CLEAR     67  64  90 CALM      30.04R
MANHATTAN      PTCLDY    66  63  90 CALM      30.05R
MARYSVILLE     MOCLDY   N/A N/A N/A NE5       30.07S
OLATHE IND     PTCLDY    67  66  97 N6        30.05R
OLATHE EXE     CLOUDY    71  67  87 N9        30.03R
SALINA         CLEAR     68  61  78 SE5       30.06R
TOPEKA BILLARD PTCLDY    68  65  90 NE5       30.04R
TOPEKA FORBES  CLEAR     70  65  84 NE3       30.04R
$$


USA.gov is the U.S. government's official web portal to all federal, state and local government web resources and services.